sat.trackr.live / text

‹ back to catalog

STARLINK-2687

NORAD 48466 · 2021-040AQ

PAYLOAD ACTIVE UNKNOWN

§ Identity

Operator
Country
US
Launch date
2021-05-09
Launch site
AFETR
Launch vehicle
Mass (kg)
RCS (m²)

Purposes: comms

External: N2YO · Heavens-Above · Gunter

§ Orbital elements

Epoch: 2026-09-19T23:53:36.616416Z

Period
94.01 min
Inclination
53.1598°
Eccentricity
0.0001273
Mean motion
15.31705841 rev/d
Perigee alt
469.9 km
Apogee alt
471.6 km
Semi-major
6,848.9 km
B*
-3.4620e-6
RAAN
6.8458°
Arg perigee
85.2572°
Mean anomaly
274.8575°
Rev number
29,628

§ Raw data

STARLINK-26871 48466U 21040AQ  26262.99556269 -.00000473  00000+0 -34620-5 0  99992 48466  53.1598   6.8458 0001273  85.2572 274.8575 15.31705841296284

JSON: /api/v1/satellites/48466 · /tle

For live sub-satellite position, see the globe view (requires WebGL).

§ Visibility from observer

Set your observer location to see the next 7 days of passes ≥ 10°. The values pass through the URL so the page stays shareable.

No JS? Fill the form by hand. The geolocation button needs JavaScript.